{"data":{"norad_id":63662,"intl_designator":"2025-084A","name":"TIANLIAN 2-05","alt_names":[],"object_type":"PAYLOAD","status":"ACTIVE","operator":null,"country":"PRC","launch_date":"2025-04-27","launch_site_code":"XICLF","launch_vehicle":null,"mission":null,"orbit_class":"UNKNOWN","rcs_meters":null,"size_class":null,"mass_kg":null,"dimensions":null,"purposes":["comms"],"wikipedia_slug":null,"has_3d_model":false,"image_url":null,"decayed_at":null,"tle_current":{"epoch":"2026-05-25T03:50:24.208224Z","epoch_age_seconds":58311,"freshness":"FRESH","line1":"1 63662U 25084A   26145.16000241  .00000118  00000+0  00000+0 0  9992","line2":"2 63662   4.5079 280.1025 0003487 133.2919 267.2985  1.00273073  4150","mean_motion":1.00273073,"eccentricity":0.0003487,"inclination_deg":4.5079,"raan_deg":280.1025,"arg_perigee_deg":133.2919,"mean_anomaly_deg":267.2985,"bstar":0,"rev_number":415,"period_min":1436.0784574738,"perigee_km":35771.53117577,"apogee_km":35800.93660803,"semimajor_km":42164.3708919,"source":"CELESTRAK","updated_at":"2026-05-25T13:38:14.153310Z"}}}